This demonstration page uses our WeatherBlox Daily Observations layout. Learn more.

Left ArrowRight Arrow

34.74481, -87.66753

Hourly Observations for December 27, 2017

Temp ( °F °C ) Dew Point ( °F °C ) Humidity (%) Winds ( mph kmh ) Pressure ( in mb ) Visibility ( mi km ) Precip ( " mm )
12:53 am 00:53 Mostly Cloudy 33 0.6 23 -5 66 66 NNE 15 24 30.42 1030 10 16 0.00 0.00
1:53 am 01:53 Cloudy 33 0.6 23 -5 66 66 NNE 14 22 30.45 1031 10 16 0.00 0.00
2:53 am 02:53 Cloudy 33 0.6 23 -5 66 66 NNE 10 17 30.49 1033 10 16 0.00 0.00
3:53 am 03:53 Cloudy 32 0 23 -5 69 69 N 6 9 30.50 1033 10 16 0.00 0.00
4:53 am 04:53 Cloudy 32 0 22 -5.6 66 66 NNE 7 11 30.52 1033 10 16 0.00 0.00
5:53 am 05:53 Cloudy 31 -0.6 22 -5.6 69 69 NNE 12 19 30.53 1034 10 16 0.00 0.00
6:53 am 06:53 Cloudy 30 -1.1 21 -6.1 69 69 N 9 15 30.55 1035 10 16 0.00 0.00
7:53 am 07:53 Cloudy 30 -1.1 21 -6.1 69 69 NNE 12 19 30.57 1035 10 16 0.00 0.00
8:53 am 08:53 Cloudy 30 -1.1 20 -6.7 66 66 NNE 14 22 30.58 1035 10 16 0.00 0.00
9:53 am 09:53 Cloudy 30 -1.1 19 -7.2 64 64 N 10 17 30.59 1036 10 16 0.00 0.00
10:53 am 10:53 Sunny 32 0 19 -7.2 59 59 NNE 12 19 30.58 1036 10 16 0.00 0.00
11:53 am 11:53 Sunny 35 1.7 21 -6.1 57 57 N 13 20 30.56 1035 10 16 0.00 0.00
12:53 pm 12:53 Sunny 34 1.1 20 -6.7 56 56 NNE 10 17 30.54 1034 10 16 0.00 0.00
1:53 pm 13:53 Sunny 33 0.6 18 -7.8 54 54 NNE 9 15 30.54 1034 10 16 0.00 0.00
2:53 pm 14:53 Sunny 33 0.6 18 -7.8 54 54 NNE 12 19 30.53 1034 10 16 0.00 0.00
3:53 pm 15:53 Sunny 31 -0.6 16 -8.9 54 54 N 10 17 30.55 1035 10 16 0.00 0.00
4:53 pm 16:53 Clear 30 -1.1 16 -8.9 56 56 NNE 9 15 30.55 1035 10 16 0.00 0.00
5:53 pm 17:53 Clear 29 -1.7 14 -10 54 54 NNE 12 19 30.56 1035 10 16 0.00 0.00
6:53 pm 18:53 Clear 29 -1.7 13 -10.6 51 51 NNE 10 17 30.57 1035 10 16 0.00 0.00
7:53 pm 19:53 Clear 28 -2.2 10 -12.2 47 47 ENE 10 17 30.56 1035 10 16 0.00 0.00
8:53 pm 20:53 Clear 27 -2.8 9 -12.8 46 46 NE 14 22 30.55 1035 10 16 0.00 0.00
9:53 pm 21:53 Clear 26 -3.3 8 -13.3 46 46 NE 10 17 30.55 1035 10 16 0.00 0.00
10:53 pm 22:53 Clear 25 -3.9 7 -13.9 46 46 NE 7 11 30.54 1034 10 16 0.00 0.00
11:53 pm 23:53 Clear 24 -4.4 7 -13.9 48 48 NNE 10 17 30.53 1034 10 16 0.00 0.00

Powered by AerisWeather